Alturas, CA

6:55 AM PST on December 07, 2019 (GMT -0800)
Alturas Municipal

Weather History for KAAT - October, 2019

Change the Weather History Date:

Wednesday, October 30, 2019

  Actual Average Record
Temperature  
Mean Temperature 28 °F 42 °F  
Max Temperature 51 °F 58 °F 82 °F (1962)
Min Temperature 5 °F 26 °F 9 °F (2002)
Degree Days  
Heating Degree Days 37 23  
Month to date heating degree days 672 543  
Since 1 July heating degree days 978 920  
Cooling Degree Days 0 0  
Month to date cooling degree days 0 0  
Year to date cooling degree days 217 156  
Moisture  
Dew Point -2 °F    
Average Humidity 33    
Maximum Humidity 69    
Minimum Humidity 9    
Precipitation  
Precipitation 0.00 in 0.05 in 1.22 in (1992)
Month to date precipitation 0.31 0.96  
Year to date precipitation 12.54 10.62  
Sea Level Pressure  
Sea Level Pressure 30.39 in    
Wind  
Wind Speed 3 mph ()    
Max Wind Speed 12 mph    
Max Gust Speed 16 mph    
Visibility 9.3 miles    
Events      
T = Trace of Precipitation, MM = Missing Value Source: Averaged Metar Reports

Daily Weather History Graph

Daily Weather History Graph

Search for Another Location

Airport or City:

Astronomy

Oct. 30, 2019 Rise Set
Actual Time 7:31 AM PDT 5:59 PM PDT
Civil Twilight 7:02 AM PDT 6:28 PM PDT
Nautical Twilight 6:30 AM PDT 7:01 PM PDT
Astronomical Twilight 5:57 AM PDT 7:33 PM PDT
Moon 10:22 AM PDT (10/30) 8:09 PM PDT (10/30)
Length of Visible Light 11h 25m
Length of Day
10h 28m
Waxing Crescent, 9% of the Moon is Illuminated
Oct 30
Waxing Crescent
Nov 4
First Quarter
Nov 12
Full
Nov 19
Last Quarter
Nov 26
New

Hourly Weather History & Observations

Time (PDT) Temp. Windchill Dew Point Humidity Pressure Visibility Wind Dir Wind Speed Gust Speed Precip Events Conditions
12:55 AM 17.1 °F - -4.0 °F 39% 30.35 in 10.0 mi Calm Calm - N/A   Clear
1:55 AM 12.0 °F - -5.1 °F 46% 30.37 in 10.0 mi Calm Calm - N/A   Clear
2:55 AM 12.0 °F - -0.9 °F 56% 30.38 in 10.0 mi Calm Calm - N/A   Clear
3:55 AM 12.0 °F - 1.0 °F 61% 30.38 in 10.0 mi Calm Calm - N/A   Clear
4:55 AM 10.0 °F - -0.9 °F 61% 30.40 in 10.0 mi Calm Calm - N/A   Clear
5:55 AM 10.0 °F 3.6 °F -4.0 °F 53% 30.41 in 10.0 mi NNE 3.5 mph - N/A   Clear
6:55 AM 7.0 °F 0.1 °F -2.9 °F 64% 30.44 in 9.0 mi North 3.5 mph - N/A   Clear
7:55 AM 9.0 °F -2.2 °F -2.9 °F 59% 30.45 in 3.0 mi SSE 6.9 mph - N/A   Haze
8:55 AM 19.0 °F 12.3 °F -0.0 °F 43% 30.45 in 8.0 mi NNE 4.6 mph - N/A   Clear
9:55 AM 28.9 °F 21.9 °F 1.0 °F 30% 30.43 in 10.0 mi ENE 6.9 mph - N/A   Clear
10:55 AM 37.0 °F 31.6 °F -2.9 °F 18% 30.40 in 10.0 mi SSE 6.9 mph - N/A   Clear
11:55 AM 41.0 °F 35.8 °F -2.9 °F 16% 30.38 in 10.0 mi ENE 8.1 mph - N/A   Clear
12:55 PM 45.0 °F 43.5 °F -4.0 °F 13% 30.37 in 10.0 mi Variable 3.5 mph - N/A   Clear
1:55 PM 48.0 °F - -4.0 °F 11% 30.35 in 10.0 mi Variable 4.6 mph - N/A   Clear
2:55 PM 48.9 °F - -2.9 °F 12% 30.33 in 10.0 mi East 8.1 mph - N/A   Clear
3:55 PM 51.1 °F - -7.1 °F 9% 30.33 in 10.0 mi SE 6.9 mph - N/A   Clear
4:55 PM 48.9 °F - -4.0 °F 11% 30.35 in 10.0 mi SE 10.4 mph - N/A   Clear
5:55 PM 41.0 °F 35.8 °F -2.0 °F 16% 30.37 in 10.0 mi SE 8.1 mph - N/A   Clear
6:55 PM 36.0 °F 31.1 °F -0.9 °F 21% 30.41 in 10.0 mi SE 5.8 mph - N/A   Clear
7:55 PM 32.0 °F - -0.0 °F 26% 30.43 in 10.0 mi Calm Calm - N/A   Clear
8:55 PM 32.0 °F 28.7 °F -2.0 °F 23% 30.41 in 10.0 mi East 3.5 mph - N/A   Clear
9:55 PM 27.0 °F 23.0 °F -0.0 °F 31% 30.42 in 9.0 mi East 3.5 mph - N/A   Clear
10:55 PM 23.0 °F 17.0 °F -0.0 °F 37% 30.41 in 9.0 mi NE 4.6 mph - N/A   Clear
11:55 PM 23.0 °F 15.8 °F -0.9 °F 35% 30.40 in 5.0 mi East 5.8 mph - N/A   Haze